AAL1178 KDCA-KMIA

Flight info

Callsign AAL1178
Flight time 2h 3m
Altitude 38000
Route AMEEE1 SCOOB EARZZ SKARP Y313 HOAGG BNFSH3
Aircraft B38M/M-SDE1FGHILORVWXY/HB1

Departure

Time 2026-04-25 15:31
Airport Ronald Reagan Washington National Airport (KDCA)

Arrival

Time 2026-04-25 17:34
Airport Miami International Airport (KMIA)
Time Latitude Longitude Altitude Speed Heading
2026-04-25 14:38 38.85647 -77.04358 26 ft 0 kts 192°
2026-04-25 15:18 38.85664 -77.04354 26 ft 4 kts 176°
2026-04-25 15:18 38.85684 -77.04361 26 ft 4 kts 78°
2026-04-25 15:18 38.85694 -77.04329 26 ft 4 kts 70°
2026-04-25 15:19 38.85701 -77.04304 26 ft 4 kts 72°
2026-04-25 15:19 38.85703 -77.04293 26 ft 4 kts 72°
2026-04-25 15:19 38.85717 -77.04238 26 ft 4 kts 72°
2026-04-25 15:19 38.85725 -77.04205 27 ft 4 kts 72°
2026-04-25 15:20 38.85728 -77.04196 27 ft 0 kts 72°
2026-04-25 15:25 38.85729 -77.04189 27 ft 2 kts 72°
2026-04-25 15:26 38.85736 -77.04164 27 ft 4 kts 72°
2026-04-25 15:26 38.85735 -77.04121 27 ft 6 kts 114°
2026-04-25 15:26 38.85706 -77.04080 27 ft 7 kts 117°
2026-04-25 15:26 38.85726 -77.04052 28 ft 5 kts
2026-04-25 15:27 38.85763 -77.04054 28 ft 6 kts 356°
2026-04-25 15:27 38.85809 -77.04058 28 ft 8 kts 355°
2026-04-25 15:27 38.85919 -77.04054 27 ft 9 kts 36°
2026-04-25 15:28 38.85952 -77.03980 27 ft 10 kts 36°
2026-04-25 15:28 38.86004 -77.03956 27 ft 0 kts 14°
2026-04-25 15:29 38.86007 -77.03955 27 ft 2 kts 14°
2026-04-25 15:29 38.86038 -77.03944 26 ft 7 kts 15°
2026-04-25 15:29 38.86091 -77.03905 26 ft 10 kts 50°
2026-04-25 15:29 38.86064 -77.03865 28 ft 8 kts 186°
2026-04-25 15:30 38.86031 -77.03864 27 ft 0 kts 175°
2026-04-25 15:30 38.86030 -77.03864 27 ft 3 kts 175°
2026-04-25 15:30 38.85775 -77.03839 27 ft 76 kts 175°
2026-04-25 15:30 38.85008 -77.03762 29 ft 143 kts 175°
2026-04-25 15:31 38.83864 -77.03652 249 ft 177 kts 174°
2026-04-25 15:31 38.82622 -77.03561 934 ft 182 kts 167°
2026-04-25 15:31 38.81363 -77.03274 1761 ft 184 kts 166°
2026-04-25 15:31 38.80040 -77.02946 2210 ft 205 kts 167°
2026-04-25 15:32 38.78565 -77.02593 2574 ft 225 kts 168°
2026-04-25 15:32 38.77006 -77.02233 3250 ft 229 kts 169°
2026-04-25 15:32 38.75445 -77.01750 4077 ft 236 kts 158°
2026-04-25 15:33 38.72463 -76.99301 5192 ft 273 kts 148°
2026-04-25 15:33 38.70872 -76.97924 5976 ft 278 kts 148°
2026-04-25 15:33 38.69266 -76.96520 6829 ft 281 kts 148°
2026-04-25 15:33 38.67647 -76.95097 7652 ft 283 kts 148°
2026-04-25 15:34 38.66014 -76.93658 8513 ft 286 kts 148°
2026-04-25 15:34 38.64365 -76.92205 9349 ft 289 kts 149°
2026-04-25 15:34 38.62703 -76.90739 10169 ft 292 kts 149°
2026-04-25 15:34 38.62157 -76.90257 10354 ft 297 kts 149°
2026-04-25 15:35 38.57296 -76.85973 11748 ft 330 kts 148°
2026-04-25 15:35 38.55418 -76.84317 12490 ft 336 kts 148°
2026-04-25 15:35 38.53484 -76.82586 13261 ft 341 kts 148°
2026-04-25 15:36 38.49536 -76.79056 14741 ft 351 kts 147°
2026-04-25 15:36 38.47522 -76.77257 15501 ft 355 kts 147°
2026-04-25 15:36 38.45486 -76.75442 16233 ft 359 kts 147°
2026-04-25 15:37 38.43425 -76.73605 16964 ft 363 kts 147°
2026-04-25 15:37 38.41239 -76.71980 17659 ft 364 kts 162°
2026-04-25 15:37 38.38777 -76.71313 18335 ft 363 kts 177°
2026-04-25 15:37 38.36237 -76.70991 18885 ft 368 kts 177°
2026-04-25 15:38 38.33686 -76.70687 19507 ft 371 kts 178°
2026-04-25 15:38 38.31104 -76.70399 20125 ft 373 kts 178°
2026-04-25 15:38 38.28502 -76.70120 20721 ft 376 kts 178°
2026-04-25 15:38 38.25882 -76.69847 21309 ft 379 kts 178°
2026-04-25 15:39 38.23243 -76.69573 21885 ft 382 kts 178°
2026-04-25 15:39 38.20586 -76.69299 22470 ft 385 kts 178°
2026-04-25 15:39 38.17901 -76.69022 23042 ft 388 kts 179°
2026-04-25 15:39 38.15199 -76.68744 23586 ft 391 kts 179°
2026-04-25 15:40 38.12476 -76.68464 24021 ft 394 kts 178°
2026-04-25 15:40 38.11590 -76.68372 24165 ft 395 kts 178°
2026-04-25 15:40 38.06961 -76.67898 24897 ft 400 kts 179°
2026-04-25 15:40 38.04215 -76.67616 25334 ft 403 kts 179°
2026-04-25 15:41 38.01408 -76.67328 25763 ft 406 kts 179°
2026-04-25 15:41 37.99502 -76.67133 26051 ft 408 kts 179°
2026-04-25 15:41 37.95734 -76.66747 26600 ft 412 kts 179°
2026-04-25 15:41 37.93802 -76.66549 26880 ft 414 kts 179°
2026-04-25 15:42 37.90922 -76.66254 27287 ft 417 kts 179°
2026-04-25 15:42 37.88019 -76.65957 27692 ft 419 kts 179°
2026-04-25 15:42 37.85109 -76.65661 28115 ft 421 kts 179°
2026-04-25 15:42 37.82177 -76.65362 28507 ft 424 kts 179°
2026-04-25 15:43 37.79228 -76.65061 28884 ft 427 kts 179°
2026-04-25 15:43 37.76253 -76.64758 29270 ft 429 kts 179°
2026-04-25 15:43 37.73264 -76.64454 29644 ft 432 kts 179°
2026-04-25 15:43 37.70260 -76.64148 30005 ft 435 kts 179°
2026-04-25 15:44 37.67231 -76.63841 30308 ft 438 kts 180°
2026-04-25 15:44 37.64192 -76.63532 30619 ft 440 kts 180°
2026-04-25 15:44 37.61132 -76.63222 30916 ft 442 kts 180°
2026-04-25 15:44 37.58069 -76.63155 31187 ft 439 kts 191°
2026-04-25 15:45 37.55031 -76.63614 31464 ft 441 kts 191°
2026-04-25 15:45 37.51970 -76.64027 31739 ft 444 kts 191°
2026-04-25 15:45 37.48897 -76.64445 32047 ft 446 kts 191°
2026-04-25 15:45 37.46853 -76.64724 32244 ft 447 kts 191°
2026-04-25 15:46 37.42698 -76.65292 32604 ft 451 kts 191°
2026-04-25 15:46 37.39566 -76.65720 32877 ft 453 kts 191°
2026-04-25 15:46 37.36420 -76.66149 33148 ft 456 kts 191°
2026-04-25 15:46 37.33265 -76.66580 33424 ft 458 kts 191°
2026-04-25 15:47 37.30091 -76.67012 33697 ft 460 kts 191°
2026-04-25 15:47 37.26900 -76.67446 34022 ft 461 kts 191°
2026-04-25 15:47 37.23715 -76.67880 34377 ft 459 kts 191°
2026-04-25 15:47 37.20544 -76.68311 34744 ft 458 kts 192°
2026-04-25 15:48 37.17384 -76.68740 35081 ft 456 kts 191°
2026-04-25 15:48 37.14231 -76.69168 35407 ft 455 kts 191°
2026-04-25 15:48 37.11081 -76.69595 35742 ft 454 kts 191°
2026-04-25 15:48 37.07943 -76.70020 36071 ft 453 kts 192°
2026-04-25 15:49 37.04823 -76.70442 36386 ft 451 kts 192°
2026-04-25 15:49 37.01704 -76.70864 36705 ft 450 kts 192°
2026-04-25 15:49 36.98593 -76.71284 37000 ft 449 kts 192°
2026-04-25 15:49 36.95498 -76.71702 37266 ft 448 kts 192°
2026-04-25 15:50 36.92394 -76.72121 37468 ft 449 kts 192°
2026-04-25 15:50 36.89289 -76.72539 37711 ft 448 kts 192°
2026-04-25 15:50 36.86191 -76.72957 37906 ft 448 kts 192°
2026-04-25 15:50 36.83087 -76.73374 37910 ft 448 kts 192°
2026-04-25 15:51 36.77964 -76.74063 37892 ft 445 kts 192°
2026-04-25 15:51 36.70748 -76.75031 37880 ft 446 kts 191°
2026-04-25 15:52 36.64552 -76.75862 37895 ft 448 kts 191°
2026-04-25 15:52 36.58358 -76.76690 37895 ft 448 kts 191°
2026-04-25 15:53 36.52160 -76.77518 37878 ft 448 kts 191°
2026-04-25 15:53 36.45959 -76.78344 37867 ft 448 kts 191°
2026-04-25 15:54 36.39789 -76.79166 37875 ft 449 kts 191°
2026-04-25 15:54 36.33538 -76.79997 37877 ft 449 kts 191°
2026-04-25 15:55 36.27374 -76.80815 37885 ft 449 kts 191°
2026-04-25 15:55 36.21159 -76.81638 37887 ft 449 kts 191°
2026-04-25 15:56 36.14937 -76.82461 37889 ft 449 kts 191°
2026-04-25 15:56 36.08721 -76.83282 37893 ft 449 kts 191°
2026-04-25 15:57 36.02507 -76.84101 37893 ft 449 kts 191°
2026-04-25 15:57 35.96277 -76.84922 37897 ft 451 kts 190°
2026-04-25 15:58 35.90087 -76.86009 37876 ft 443 kts 202°
2026-04-25 15:58 35.84258 -76.88329 37860 ft 442 kts 202°
2026-04-25 15:59 35.78403 -76.90629 37896 ft 442 kts 202°
2026-04-25 15:59 35.72542 -76.92942 37910 ft 443 kts 202°
2026-04-25 16:00 35.68604 -76.94494 37898 ft 443 kts 202°
2026-04-25 16:00 35.60782 -76.97573 37901 ft 443 kts 201°
2026-04-25 16:01 35.54910 -76.99880 37910 ft 443 kts 201°
2026-04-25 16:01 35.49017 -77.02192 37907 ft 446 kts 201°
2026-04-25 16:02 35.43105 -77.04508 37904 ft 446 kts 201°
2026-04-25 16:02 35.37194 -77.06820 37904 ft 446 kts 201°
2026-04-25 16:03 35.31287 -77.09126 37902 ft 446 kts 201°
2026-04-25 16:03 35.25371 -77.11433 37905 ft 446 kts 201°
2026-04-25 16:04 35.19460 -77.13734 37900 ft 446 kts 201°
2026-04-25 16:04 35.13544 -77.16034 37920 ft 446 kts 201°
2026-04-25 16:05 35.07628 -77.18330 37923 ft 446 kts 201°
2026-04-25 16:06 34.98739 -77.21773 37925 ft 448 kts 201°
2026-04-25 16:06 34.92808 -77.24066 37920 ft 447 kts 201°
2026-04-25 16:07 34.86930 -77.26336 37919 ft 446 kts 201°
2026-04-25 16:07 34.81010 -77.28617 37905 ft 447 kts 200°
2026-04-25 16:08 34.75061 -77.30908 37924 ft 449 kts 200°
2026-04-25 16:08 34.69104 -77.33197 37921 ft 449 kts 200°
2026-04-25 16:09 34.63143 -77.35484 37919 ft 449 kts 200°
2026-04-25 16:09 34.57190 -77.37765 37915 ft 449 kts 200°
2026-04-25 16:10 34.52193 -77.39678 37931 ft 450 kts 200°
2026-04-25 16:10 34.45113 -77.41712 37947 ft 452 kts 192°
2026-04-25 16:11 34.38901 -77.42946 37925 ft 452 kts 192°
2026-04-25 16:11 34.32684 -77.44164 37926 ft 453 kts 191°
2026-04-25 16:12 34.26447 -77.45383 37933 ft 454 kts 191°
2026-04-25 16:12 34.20201 -77.46601 37931 ft 454 kts 191°
2026-04-25 16:13 34.13963 -77.47817 37928 ft 454 kts 191°
2026-04-25 16:13 34.07715 -77.49032 37921 ft 455 kts 191°
2026-04-25 16:14 34.01450 -77.50249 37937 ft 457 kts 191°
2026-04-25 16:14 33.95181 -77.51464 37936 ft 456 kts 191°
2026-04-25 16:15 33.88911 -77.52678 37936 ft 457 kts 191°
2026-04-25 16:15 33.82636 -77.53891 37928 ft 457 kts 190°
2026-04-25 16:16 33.76389 -77.55098 37944 ft 459 kts 190°
2026-04-25 16:16 33.70085 -77.56313 37937 ft 458 kts 190°
2026-04-25 16:17 33.63784 -77.57526 37942 ft 458 kts 190°
2026-04-25 16:17 33.57509 -77.58845 37924 ft 458 kts 197°
2026-04-25 16:18 33.51380 -77.60975 37958 ft 460 kts 197°
2026-04-25 16:18 33.45244 -77.63116 37946 ft 459 kts 197°
2026-04-25 16:19 33.39113 -77.65260 37944 ft 459 kts 197°
2026-04-25 16:19 33.32977 -77.67401 37939 ft 459 kts 197°
2026-04-25 16:20 33.23734 -77.70622 37948 ft 462 kts 197°
2026-04-25 16:21 33.14521 -77.73825 37947 ft 462 kts 197°
2026-04-25 16:21 33.08314 -77.75979 37958 ft 462 kts 197°
2026-04-25 16:22 33.02165 -77.78110 37956 ft 465 kts 197°
2026-04-25 16:22 32.95950 -77.80261 37951 ft 465 kts 197°
2026-04-25 16:23 32.89741 -77.82406 37947 ft 465 kts 197°
2026-04-25 16:23 32.83523 -77.84552 37950 ft 465 kts 197°
2026-04-25 16:24 32.77316 -77.86690 37955 ft 465 kts 197°
2026-04-25 16:24 32.71102 -77.88828 37952 ft 465 kts 197°
2026-04-25 16:25 32.64873 -77.90903 37955 ft 465 kts 195°
2026-04-25 16:25 32.58636 -77.92925 37954 ft 465 kts 195°
2026-04-25 16:26 32.53454 -77.94607 37958 ft 466 kts 195°
2026-04-25 16:26 32.47191 -77.96637 37952 ft 466 kts 195°
2026-04-25 16:27 32.39929 -77.98988 37953 ft 465 kts 195°
2026-04-25 16:27 32.33689 -78.01005 37959 ft 465 kts 195°
2026-04-25 16:28 32.28449 -78.02696 37953 ft 466 kts 195°
2026-04-25 16:28 32.22186 -78.04715 37960 ft 467 kts 195°
2026-04-25 16:29 32.15960 -78.06719 37959 ft 467 kts 195°
2026-04-25 16:29 32.09695 -78.08733 37961 ft 467 kts 195°
2026-04-25 16:30 32.03385 -78.10758 37956 ft 468 kts 195°
2026-04-25 16:30 31.97133 -78.12762 37961 ft 469 kts 195°
2026-04-25 16:31 31.90838 -78.14777 37968 ft 469 kts 195°
2026-04-25 16:31 31.84542 -78.16789 37964 ft 468 kts 195°
2026-04-25 16:32 31.78248 -78.18798 37967 ft 469 kts 195°
2026-04-25 16:32 31.71953 -78.20805 37968 ft 469 kts 195°
2026-04-25 16:33 31.65646 -78.22812 37966 ft 469 kts 195°
2026-04-25 16:33 31.59384 -78.24802 37970 ft 469 kts 195°
2026-04-25 16:34 31.53085 -78.26802 37973 ft 469 kts 195°
2026-04-25 16:34 31.46755 -78.28832 37972 ft 468 kts 197°
2026-04-25 16:35 31.40534 -78.30929 37968 ft 468 kts 196°
2026-04-25 16:35 31.34273 -78.33025 37964 ft 468 kts 196°
2026-04-25 16:36 31.28002 -78.35120 37970 ft 468 kts 196°
2026-04-25 16:36 31.21742 -78.37209 37971 ft 467 kts 197°
2026-04-25 16:37 31.15504 -78.39288 37972 ft 466 kts 197°
2026-04-25 16:37 31.09256 -78.41367 37974 ft 466 kts 197°
2026-04-25 16:38 31.03010 -78.43443 37974 ft 466 kts 197°
2026-04-25 16:38 30.96771 -78.45513 37977 ft 465 kts 197°
2026-04-25 16:39 30.90592 -78.47561 37976 ft 465 kts 197°
2026-04-25 16:39 30.84375 -78.49618 37981 ft 465 kts 197°
2026-04-25 16:40 30.78151 -78.51676 37987 ft 465 kts 197°
2026-04-25 16:40 30.71931 -78.53729 37973 ft 464 kts 197°
2026-04-25 16:41 30.65722 -78.55776 37983 ft 463 kts 197°
2026-04-25 16:41 30.56424 -78.58835 37976 ft 463 kts 197°
2026-04-25 16:42 30.50213 -78.60876 37986 ft 463 kts 197°
2026-04-25 16:42 30.44010 -78.62911 37935 ft 465 kts 197°
2026-04-25 16:43 30.37743 -78.64965 37994 ft 472 kts 197°
2026-04-25 16:43 30.31417 -78.67035 37986 ft 472 kts 197°
2026-04-25 16:44 30.25083 -78.69106 37969 ft 473 kts 197°
2026-04-25 16:44 30.18726 -78.71180 37986 ft 476 kts 197°
2026-04-25 16:45 30.12353 -78.73258 37988 ft 476 kts 197°
2026-04-25 16:45 30.05987 -78.75332 37990 ft 476 kts 197°
2026-04-25 16:46 29.99609 -78.77406 37988 ft 476 kts 197°
2026-04-25 16:46 29.94313 -78.79127 37993 ft 476 kts 197°
2026-04-25 16:47 29.86909 -78.81529 37990 ft 475 kts 197°
2026-04-25 16:47 29.80551 -78.83589 37995 ft 475 kts 197°
2026-04-25 16:48 29.74046 -78.84851 38011 ft 476 kts 187°
2026-04-25 16:48 29.67468 -78.85754 37998 ft 476 kts 187°
2026-04-25 16:49 29.60884 -78.86643 37990 ft 476 kts 187°
2026-04-25 16:49 29.54315 -78.87528 37997 ft 475 kts 187°
2026-04-25 16:50 29.47751 -78.88411 37993 ft 475 kts 187°
2026-04-25 16:50 29.41182 -78.89294 37996 ft 475 kts 187°
2026-04-25 16:51 29.34610 -78.90176 37994 ft 475 kts 188°
2026-04-25 16:51 29.30219 -78.90764 37994 ft 474 kts 188°
2026-04-25 16:52 29.21503 -78.91930 37996 ft 474 kts 187°
2026-04-25 16:52 29.14947 -78.92807 37995 ft 474 kts 187°
2026-04-25 16:53 29.05124 -78.94118 37994 ft 473 kts 188°
2026-04-25 16:54 28.98597 -78.94987 37990 ft 471 kts 188°
2026-04-25 16:54 28.92074 -78.95855 37994 ft 472 kts 188°
2026-04-25 16:55 28.85555 -78.96721 37990 ft 472 kts 188°
2026-04-25 16:55 28.79029 -78.97587 37984 ft 472 kts 188°
2026-04-25 16:56 28.72526 -78.98449 37991 ft 470 kts 188°
2026-04-25 16:56 28.66019 -78.99310 37993 ft 470 kts 188°
2026-04-25 16:57 28.59556 -79.00165 37992 ft 470 kts 188°
2026-04-25 16:57 28.53053 -79.01024 37994 ft 471 kts 188°
2026-04-25 16:58 28.46553 -79.01881 37987 ft 469 kts 188°
2026-04-25 16:58 28.40079 -79.02734 37994 ft 468 kts 188°
2026-04-25 16:59 28.33631 -79.03758 37974 ft 465 kts 199°
2026-04-25 16:59 28.27496 -79.06049 37950 ft 465 kts 200°
2026-04-25 17:00 28.21342 -79.08330 37991 ft 466 kts 200°
2026-04-25 17:00 28.15203 -79.10617 37994 ft 463 kts 200°
2026-04-25 17:01 28.09080 -79.12896 37997 ft 463 kts 200°
2026-04-25 17:01 28.02962 -79.15171 37993 ft 463 kts 200°
2026-04-25 17:02 27.96833 -79.17448 37991 ft 463 kts 200°
2026-04-25 17:02 27.90719 -79.19715 37987 ft 462 kts 200°
2026-04-25 17:03 27.84610 -79.21979 37990 ft 462 kts 200°
2026-04-25 17:03 27.78498 -79.24241 37991 ft 462 kts 200°
2026-04-25 17:04 27.72389 -79.26499 37990 ft 462 kts 200°
2026-04-25 17:04 27.66289 -79.28751 37988 ft 462 kts 200°
2026-04-25 17:05 27.60280 -79.30967 37685 ft 449 kts 200°
2026-04-25 17:05 27.54374 -79.33143 36540 ft 446 kts 200°
2026-04-25 17:05 27.51429 -79.34227 36009 ft 444 kts 200°
2026-04-25 17:06 27.48496 -79.35305 35508 ft 442 kts 200°
2026-04-25 17:06 27.45582 -79.36377 35003 ft 440 kts 200°
2026-04-25 17:06 27.42675 -79.37445 34488 ft 439 kts 200°
2026-04-25 17:06 27.39769 -79.38512 33965 ft 439 kts 201°
2026-04-25 17:07 27.36869 -79.39576 33369 ft 438 kts 201°
2026-04-25 17:07 27.33971 -79.40639 32858 ft 436 kts 200°
2026-04-25 17:07 27.31099 -79.41692 32366 ft 433 kts 200°
2026-04-25 17:07 27.28233 -79.42741 31826 ft 432 kts 200°
2026-04-25 17:08 27.25384 -79.43785 31327 ft 430 kts 200°
2026-04-25 17:08 27.22548 -79.44822 30869 ft 427 kts 200°
2026-04-25 17:08 27.19730 -79.45853 30410 ft 425 kts 200°
2026-04-25 17:08 27.16920 -79.46881 29871 ft 424 kts 200°
2026-04-25 17:09 27.14098 -79.47912 28991 ft 430 kts 200°
2026-04-25 17:09 27.11235 -79.48958 28258 ft 432 kts 200°
2026-04-25 17:09 27.08426 -79.49983 28207 ft 418 kts 200°
2026-04-25 17:09 27.05709 -79.50974 28070 ft 406 kts 200°
2026-04-25 17:10 27.03034 -79.51950 27649 ft 403 kts 200°
2026-04-25 17:10 27.00373 -79.52920 27196 ft 400 kts 200°
2026-04-25 17:10 26.97734 -79.53881 26762 ft 398 kts 200°
2026-04-25 17:10 26.95090 -79.54844 26147 ft 401 kts 200°
2026-04-25 17:11 26.92403 -79.55822 25532 ft 411 kts 200°
2026-04-25 17:11 26.89676 -79.56813 24925 ft 413 kts 200°
2026-04-25 17:11 26.86927 -79.57806 24243 ft 417 kts 200°
2026-04-25 17:11 26.84156 -79.58806 23651 ft 419 kts 201°
2026-04-25 17:12 26.81378 -79.59808 22973 ft 420 kts 201°
2026-04-25 17:12 26.78602 -79.60809 22301 ft 420 kts 201°
2026-04-25 17:12 26.75855 -79.61799 21678 ft 419 kts 201°
2026-04-25 17:12 26.73085 -79.62797 21051 ft 418 kts 201°
2026-04-25 17:13 26.70312 -79.63795 20409 ft 418 kts 201°
2026-04-25 17:13 26.69376 -79.64132 20191 ft 418 kts 201°
2026-04-25 17:13 26.64764 -79.65792 19085 ft 419 kts 201°
2026-04-25 17:13 26.61989 -79.66780 18501 ft 417 kts 200°
2026-04-25 17:14 26.59226 -79.67747 17952 ft 414 kts 200°
2026-04-25 17:14 26.56500 -79.68702 17469 ft 408 kts 200°
2026-04-25 17:14 26.53805 -79.69647 17003 ft 402 kts 200°
2026-04-25 17:14 26.51164 -79.70573 16571 ft 397 kts 200°
2026-04-25 17:15 26.50309 -79.70873 16451 ft 394 kts 200°
2026-04-25 17:15 26.46099 -79.72631 16081 ft 371 kts 215°
2026-04-25 17:15 26.44212 -79.74464 15987 ft 352 kts 230°
2026-04-25 17:15 26.43118 -79.75780 15934 ft 348 kts 229°
2026-04-25 17:16 26.41464 -79.77753 15868 ft 348 kts 230°
2026-04-25 17:16 26.39817 -79.79737 15822 ft 347 kts 230°
2026-04-25 17:16 26.38245 -79.81712 15676 ft 335 kts 236°
2026-04-25 17:16 26.36941 -79.83833 15408 ft 328 kts 238°
2026-04-25 17:17 26.35651 -79.85906 15147 ft 323 kts 237°
2026-04-25 17:17 26.34369 -79.87939 14893 ft 318 kts 237°
2026-04-25 17:17 26.33101 -79.89933 14647 ft 312 kts 237°
2026-04-25 17:17 26.31867 -79.91904 14392 ft 308 kts 238°
2026-04-25 17:18 26.30653 -79.93849 14134 ft 303 kts 237°
2026-04-25 17:18 26.29453 -79.95767 13905 ft 300 kts 237°
2026-04-25 17:18 26.28255 -79.97680 13664 ft 301 kts 237°
2026-04-25 17:18 26.27060 -79.99587 13410 ft 300 kts 237°
2026-04-25 17:19 26.25721 -80.01370 13134 ft 302 kts 221°
2026-04-25 17:19 26.23871 -80.02448 12865 ft 303 kts 198°
2026-04-25 17:19 26.21792 -80.02958 12673 ft 307 kts 195°
2026-04-25 17:19 26.19705 -80.03459 12443 ft 306 kts 195°
2026-04-25 17:20 26.17628 -80.03946 12208 ft 305 kts 194°
2026-04-25 17:20 26.15556 -80.04426 11973 ft 303 kts 194°
2026-04-25 17:20 26.13492 -80.04900 11721 ft 302 kts 194°
2026-04-25 17:20 26.11440 -80.05370 11500 ft 301 kts 194°
2026-04-25 17:21 26.09388 -80.05839 11269 ft 300 kts 194°
2026-04-25 17:21 26.07348 -80.06306 11057 ft 298 kts 195°
2026-04-25 17:21 26.05326 -80.06828 10818 ft 298 kts 195°
2026-04-25 17:21 26.03306 -80.07355 10566 ft 297 kts 195°
2026-04-25 17:22 26.01331 -80.07867 10329 ft 294 kts 195°
2026-04-25 17:22 25.99992 -80.08213 10163 ft 291 kts 195°
2026-04-25 17:22 25.97376 -80.08889 9835 ft 286 kts 195°
2026-04-25 17:22 25.95453 -80.09385 9574 ft 282 kts 195°
2026-04-25 17:23 25.93583 -80.09874 9325 ft 277 kts 198°
2026-04-25 17:23 25.91895 -80.10864 9036 ft 270 kts 224°
2026-04-25 17:23 25.90613 -80.12364 8851 ft 270 kts 228°
2026-04-25 17:23 25.89346 -80.13876 8632 ft 271 kts 229°
2026-04-25 17:24 25.88287 -80.15584 8376 ft 269 kts 250°
2026-04-25 17:24 25.87975 -80.17608 8151 ft 266 kts 268°
2026-04-25 17:24 25.87892 -80.19665 7954 ft 268 kts 267°
2026-04-25 17:24 25.87802 -80.21758 7451 ft 276 kts 268°
2026-04-25 17:25 25.87720 -80.23911 6937 ft 283 kts 268°
2026-04-25 17:25 25.87643 -80.26128 6445 ft 289 kts 268°
2026-04-25 17:25 25.87609 -80.28373 5958 ft 293 kts 276°
2026-04-25 17:25 25.88241 -80.30494 5562 ft 288 kts 299°
2026-04-25 17:26 25.89191 -80.32394 5281 ft 275 kts 298°
2026-04-25 17:26 25.90082 -80.34229 5035 ft 266 kts 298°
2026-04-25 17:26 25.90963 -80.36033 4835 ft 267 kts 299°
2026-04-25 17:26 25.91846 -80.37847 4592 ft 268 kts 299°
2026-04-25 17:27 25.92735 -80.39676 4241 ft 270 kts 299°
2026-04-25 17:27 25.93543 -80.41556 4033 ft 267 kts 284°
2026-04-25 17:27 25.93676 -80.43547 4073 ft 252 kts 269°
2026-04-25 17:27 25.93669 -80.44814 4016 ft 245 kts 270°
2026-04-25 17:28 25.93653 -80.47258 3997 ft 229 kts 267°
2026-04-25 17:28 25.93251 -80.48901 3907 ft 216 kts 237°
2026-04-25 17:28 25.92217 -80.49999 3816 ft 199 kts 204°
2026-04-25 17:28 25.90949 -80.50249 3741 ft 179 kts 169°
2026-04-25 17:29 25.89900 -80.49668 3576 ft 170 kts 131°
2026-04-25 17:29 25.89282 -80.48571 3504 ft 168 kts 118°
2026-04-25 17:29 25.88693 -80.47426 3319 ft 168 kts 119°
2026-04-25 17:29 25.88118 -80.46311 3136 ft 169 kts 119°
2026-04-25 17:30 25.87534 -80.45172 2941 ft 170 kts 119°
2026-04-25 17:30 25.86951 -80.44026 2721 ft 170 kts 120°
2026-04-25 17:30 25.86395 -80.42929 2539 ft 156 kts 119°
2026-04-25 17:30 25.85868 -80.41893 2324 ft 154 kts 120°
2026-04-25 17:31 25.85346 -80.40872 2157 ft 149 kts 118°
2026-04-25 17:31 25.84855 -80.39905 1964 ft 141 kts 118°
2026-04-25 17:31 25.84383 -80.38975 1789 ft 137 kts 119°
2026-04-25 17:31 25.83915 -80.38048 1611 ft 138 kts 118°
2026-04-25 17:32 25.83442 -80.37114 1377 ft 137 kts 120°
2026-04-25 17:32 25.82980 -80.36205 1201 ft 134 kts 120°
2026-04-25 17:32 25.82517 -80.35303 1030 ft 136 kts 121°
2026-04-25 17:32 25.82050 -80.34388 864 ft 136 kts 120°
2026-04-25 17:33 25.81592 -80.33470 662 ft 136 kts 122°
2026-04-25 17:33 25.81117 -80.32550 485 ft 139 kts 124°
2026-04-25 17:33 25.80628 -80.31604 351 ft 146 kts 123°
2026-04-25 17:33 25.80143 -80.30620 140 ft 140 kts 121°
2026-04-25 17:34 25.79670 -80.29746 22 ft 112 kts 121°
2026-04-25 17:34 25.79415 -80.29236 21 ft 44 kts 117°
2026-04-25 17:34 25.79339 -80.29076 21 ft 18 kts 118°
2026-04-25 17:34 25.79299 -80.28942 21 ft 18 kts 80°
2026-04-25 17:35 25.79345 -80.28830 21 ft 17 kts 63°
2026-04-25 17:35 25.79435 -80.28793 24 ft 14 kts 345°
2026-04-25 17:35 25.79530 -80.28804 24 ft 14 kts 357°
2026-04-25 17:35 25.79626 -80.28795 26 ft 14 kts 39°
2026-04-25 17:36 25.79645 -80.28683 28 ft 16 kts 84°
2026-04-25 17:36 25.79654 -80.28556 24 ft 17 kts 79°
2026-04-25 17:36 25.79670 -80.28422 23 ft 19 kts 88°
2026-04-25 17:36 25.79674 -80.28295 22 ft 15 kts 91°
2026-04-25 17:37 25.79637 -80.28184 23 ft 14 kts 109°
2026-04-25 17:37 25.79629 -80.28156 26 ft 0 kts 107°
2026-04-25 17:37 25.79629 -80.28155 26 ft 1 kts 107°
2026-04-25 17:37 25.79624 -80.28139 24 ft 4 kts 110°
2026-04-25 17:38 25.79630 -80.28110 23 ft 4 kts 22°
2026-04-25 17:38 25.79651 -80.28104 22 ft 2 kts 14°
2026-04-25 17:38 25.79663 -80.28101 22 ft 0 kts 15°